Voltar ao catálogo

PSLV DEB

AtivoPO
NORAD 35351·DEBRIS·🇮🇳 India

Lançado Oct 22, 2001 de Satish Dhawan Space Centre

Loading…

Próximas Passagens (próximas 24 horas)

TLE

AtualizadoSource: Space-Track

Época: Sep 13, 2026, 16:01 UTC

1 35351U 01049QK  26256.66782157  .00003609  00000-0  65502-3 0  9993
2 35351  98.7921 334.6047 0004512  88.5987 271.5732 14.66905956697559

Acompanhe PSLV DEB em tempo real com AllMySat

Download on the App Store